CW6353 Weather Reports


Display with metric or nautical units.
time (UTC)temp
F
wind
direction
speed
MPH
gust
MPH
rain 1hr
in
rain 24hr
in
rain mn
in
humidity
%
barometer
mb
20260508122004 56 81 3.0 6.0 0.00 0.01 0.00 82 1017.5
20260508121520 56 63 4.0 6.0 0.00 0.01 0.00 81 1017.4
20260508121004 56 55 3.0 6.0 0.00 0.01 0.00 82 1017.3
20260508120503 56 101 4.0 6.0 0.00 0.01 0.00 82 1017.3
20260508120019 56 56 2.0 5.0 0.00 0.01 0.00 82 1017.2
20260508115505 56 66 3.0 5.0 0.00 0.01 0.00 82 1017.2
20260508115004 56 71 2.0 5.0 0.00 0.01 0.00 81 1017.1
20260508114509 56 78 3.0 5.0 0.00 0.01 0.00 81 1017.0
20260508114005 56 80 2.0 9.0 0.00 0.01 0.00 81 1016.9
20260508113505 55 78 3.0 9.0 0.00 0.01 0.00 80 1016.7
20260508113014 55 94 4.0 8.0 0.00 0.01 0.00 80 1016.5
20260508112505 55 57 4.0 9.0 0.00 0.01 0.00 81 1016.5
20260508112002 55 56 4.0 9.0 0.00 0.01 0.00 81 1016.4
20260508111505 55 51 4.0 7.0 0.00 0.01 0.00 81 1016.4
20260508111003 55 46 4.0 8.0 0.00 0.01 0.00 82 1016.3
20260508110502 54 13 4.0 8.0 0.00 0.03 0.00 82 1016.3
20260508110005 54 72 3.0 8.0 0.00 0.07 0.00 83 1016.2
20260508105503 54 49 3.0 8.0 0.00 0.10 0.00 83 1016.1
20260508105002 54 56 5.0 7.0 0.00 0.10 0.00 84 1016.0
20260508104506 54 34 4.0 7.0 0.00 0.10 0.00 84 1016.1
20260508104003 54 55 3.0 5.0 0.00 0.11 0.00 84 1016.2
20260508103504 54 65 2.0 4.0 0.00 0.11 0.00 83 1016.1
20260508103004 54 56 2.0 4.0 0.00 0.11 0.00 83 1016.3
20260508102504 54 55 1.0 3.0 0.00 0.12 0.00 84 1016.3
20260508102002 54 44 1.0 4.0 0.00 0.12 0.00 84 1016.2
20260508101503 54 31 2.0 4.0 0.00 0.12 0.00 83 1016.2
20260508101003 54 59 2.0 5.0 0.00 0.14 0.00 83 1016.0
20260508100502 54 38 2.0 5.0 0.00 0.14 0.00 83 1015.9
20260508100006 54 38 3.0 4.0 0.00 0.14 0.00 83 1015.8
20260508095503 54 46 2.0 4.0 0.00 0.14 0.00 83 1015.9
20260508095004 54 50 2.0 5.0 0.00 0.14 0.00 83 1015.9
20260508094504 54 31 2.0 6.0 0.00 0.14 0.00 82 1015.7
20260508094007 54 38 2.0 6.0 0.00 0.14 0.00 83 1015.5
20260508093503 54 70 3.0 6.0 0.00 0.14 0.00 84 1015.2
20260508093004 54 33 2.0 6.0 0.00 0.14 0.00 84 1015.2
20260508092504 54 63 3.0 5.0 0.00 0.14 0.00 84 1014.8
20260508092004 54 48 2.0 4.0 0.00 0.14 0.00 84 1014.9
20260508091510 54 73 2.0 4.0 0.00 0.14 0.00 83 1014.8
20260508091003 54 52 1.0 3.0 0.00 0.14 0.00 83 1014.8
20260508090503 55 40 1.0 2.0 0.00 0.14 0.00 82 1014.9
20260508090003 55 40 0.0 2.0 0.00 0.14 0.00 82 1014.8
20260508085502 55 40 0.0 3.0 0.00 0.14 0.00 81 1014.7
20260508085002 56 40 1.0 6.0 0.00 0.14 0.00 81 1014.6
20260508084503 56 50 2.0 6.0 0.00 0.14 0.00 80 1014.6
20260508084004 56 36 1.0 6.0 0.00 0.14 0.00 80 1014.6
20260508083504 56 57 3.0 8.0 0.00 0.14 0.00 80 1014.4
20260508083004 56 34 3.0 8.0 0.00 0.14 0.00 81 1014.4
20260508082502 55 15 4.0 9.0 0.00 0.15 0.00 81 1014.4
20260508082005 55 41 4.0 9.0 0.00 0.15 0.00 82 1014.4
20260508081504 55 29 3.0 6.0 0.00 0.15 0.00 84 1014.3
20260508081006 55 42 3.0 6.0 0.00 0.16 0.00 84 1014.3
20260508080501 54 41 3.0 6.0 0.00 0.17 0.00 85 1014.4
20260508080009 54 32 2.0 5.0 0.00 0.19 0.00 86 1014.4
20260508075508 54 360 3.0 7.0 0.00 0.21 0.00 86 1014.5
20260508075006 54 21 4.0 7.0 0.00 0.34 0.00 87 1014.7
20260508074503 54 43 2.0 4.0 0.00 0.66 0.00 87 1014.5
20260508074003 54 43 1.0 4.0 0.00 0.89 0.00 87 1014.6
20260508073503 54 43 1.0 4.0 0.00 1.04 0.00 87 1014.7
20260508073005 54 43 2.0 3.0 0.00 1.07 0.00 87 1014.8
20260508072502 55 43 1.0 2.0 0.00 1.07 0.00 87 1015.0
20260508072004 55 43 1.0 2.0 0.00 1.08 0.00 87 1015.1
20260508071511 55 43 1.0 2.0 0.00 1.09 0.00 87 1015.2
20260508071006 55 43 2.0 2.0 0.00 1.11 0.00 87 1015.3
20260508070506 55 43 1.0 2.0 0.00 1.11 0.00 88 1015.2
20260508070020 55 43 0.0 2.0 0.00 1.11 0.00 87 1015.0
20260508065503 55 43 1.0 2.0 0.00 1.11 0.00 87 1015.0
20260508065006 55 43 1.0 2.0 0.00 1.11 0.00 86 1015.0
20260508064528 55 43 1.0 2.0 0.00 1.11 0.00 87 1015.1
20260508064003 55 43 0.0 2.0 0.00 1.11 0.00 87 1015.1
20260508063508 55 43 0.0 2.0 0.00 1.11 0.00 87 1015.1
20260508063004 55 43 1.0 2.0 0.00 1.12 0.00 87 1015.2
20260508062505 55 43 1.0 2.0 0.00 1.14 0.00 87 1015.3
20260508062003 55 43 1.0 2.0 0.00 1.14 0.00 87 1015.2
20260508061506 55 43 1.0 2.0 0.00 1.15 0.00 86 1015.2
20260508061004 55 43 1.0 2.0 0.00 1.16 0.00 86 1015.2
20260508060508 55 43 0.0 3.0 0.00 1.20 0.00 86 1015.3
20260508060006 55 43 1.0 3.0 0.00 1.20 0.00 86 1015.3
20260508055504 55 43 2.0 3.0 0.00 1.22 0.00 86 1015.4
20260508055004 55 51 2.0 4.0 0.00 1.23 0.00 86 1015.5
20260508054530 55 44 2.0 4.0 0.00 1.23 0.00 86 1015.6
20260508054006 56 44 1.0 4.0 0.00 1.23 0.00 85 1015.5
20260508053503 56 26 2.0 3.0 0.00 1.23 0.00 85 1015.8
20260508053018 56 34 2.0 3.0 0.00 1.23 0.00 85 1015.8
20260508052503 56 34 1.0 3.0 0.00 1.23 0.00 85 1015.7
20260508052006 56 34 0.0 3.0 0.00 1.24 0.00 85 1015.8
20260508051516 56 34 2.0 3.0 0.00 1.24 0.00 85 1015.9
20260508051006 56 34 1.0 4.0 0.00 1.24 0.00 85 1015.8
20260508050504 57 27 2.0 4.0 0.00 1.24 0.00 85 1015.9
20260508050010 57 27 1.0 3.0 0.00 1.24 0.00 85 1015.9
20260508045504 57 27 1.0 3.0 0.00 1.24 1.24 85 1015.7
20260508045004 57 27 1.0 3.0 0.00 1.25 1.24 85 1016.0
20260508044511 57 27 1.0 3.0 0.00 1.29 1.24 85 1015.9
20260508044004 57 27 1.0 3.0 0.00 1.30 1.24 85 1015.9
20260508043504 57 49 1.0 3.0 0.00 1.30 1.24 85 1016.0
20260508043012 57 49 1.0 6.0 0.00 1.33 1.24 85 1015.8
20260508042507 57 42 2.0 6.0 0.00 1.37 1.24 85 1016.0
20260508042008 57 46 3.0 5.0 0.00 1.37 1.24 86 1015.9
20260508041510 57 59 2.0 4.0 0.00 1.37 1.24 86 1015.8
20260508041007 57 38 2.0 3.0 0.00 1.37 1.24 86 1015.9
20260508040507 57 38 1.0 3.0 0.00 1.38 1.24 86 1016.0
20260508040027 58 38 2.0 3.0 0.00 1.38 1.24 86 1016.1
20260508035504 58 360 1.0 3.0 0.00 1.39 1.24 86 1016.1
20260508035006 58 48 1.0 4.0 0.00 1.40 1.24 86 1016.0
20260508034509 58 48 1.0 5.0 0.00 1.40 1.24 86 1015.9
20260508034005 58 28 2.0 5.0 0.00 1.41 1.24 86 1015.7
20260508033504 58 27 2.0 4.0 0.00 1.43 1.24 86 1015.6
20260508033013 58 10 2.0 4.0 0.00 1.43 1.24 86 1015.7
20260508032506 58 19 1.0 3.0 0.00 1.45 1.24 86 1015.8
20260508032005 59 19 1.0 2.0 0.00 1.47 1.24 85 1015.5
20260508031521 59 19 1.0 2.0 0.00 1.48 1.24 86 1015.7
20260508031007 59 19 0.0 2.0 0.00 1.49 1.24 85 1015.7
20260508030508 59 19 1.0 2.0 0.00 1.51 1.24 85 1015.8
20260508030023 60 19 1.0 2.0 0.00 1.54 1.24 85 1015.8
20260508025504 60 19 0.0 2.0 0.00 1.57 1.24 85 1015.6
20260508025014 60 19 0.0 2.0 0.00 1.60 1.24 85 1015.6
20260508024523 60 19 1.0 2.0 0.00 1.63 1.24 85 1015.8
20260508024004 61 19 1.0 2.0 0.00 1.65 1.24 85 1015.5
20260508023503 61 19 1.0 2.0 0.00 1.66 1.24 85 1015.2
20260508023012 61 39 0.0 2.0 0.00 1.67 1.24 84 1015.3
20260508022506 61 325 0.0 2.0 0.00 1.69 1.24 84 1015.4
20260508022002 61 325 0.0 2.0 0.00 1.69 1.24 84 1015.4
20260508021502 62 325 0.0 2.0 0.00 1.70 1.24 84 1015.1
20260508021004 62 325 0.0 2.0 0.00 1.71 1.24 84 1015.4
20260508020502 62 323 0.0 4.0 0.00 1.72 1.24 84 1015.2
20260508020004 62 324 1.0 4.0 0.00 1.75 1.24 84 1015.1
20260508015504 62 311 2.0 5.0 0.00 1.89 1.24 85 1015.1
20260508015004 61 330 2.0 5.0 0.00 1.91 1.24 86 1015.0
20260508014504 61 316 2.0 4.0 0.00 1.93 1.24 86 1014.8
20260508014004 61 338 2.0 3.0 0.00 1.94 1.24 85 1014.8
20260508013503 61 315 1.0 3.0 0.00 1.95 1.24 85 1014.9
20260508013005 61 318 2.0 3.0 0.00 1.96 1.24 85 1015.0
20260508012506 61 311 1.0 2.0 0.00 1.96 1.24 85 1015.0
20260508012004 62 294 1.0 2.0 0.00 1.96 1.24 84 1014.9
20260508011504 62 294 1.0 2.0 0.00 1.96 1.24 84 1015.0
20260508011007 62 317 1.0 2.0 0.00 1.97 1.24 83 1014.8
20260508010503 62 294 1.0 3.0 0.00 1.97 1.24 82 1014.7
20260508010003 63 294 1.0 3.0 0.00 1.97 1.24 82 1014.9
20260508005503 63 294 1.0 2.0 0.00 1.97 1.24 81 1014.7
20260508005004 64 290 1.0 2.0 0.00 1.97 1.24 81 1014.7
20260508004503 64 290 1.0 3.0 0.00 1.97 1.24 80 1014.5
20260508004003 65 290 2.0 3.0 0.00 1.97 1.24 79 1014.7
20260508003503 65 298 1.0 3.0 0.00 1.97 1.24 78 1014.6
20260508003007 66 279 1.0 3.0 0.00 1.97 1.24 78 1014.6
20260508002505 66 286 2.0 2.0 0.00 1.97 1.24 77 1014.6
20260508002003 66 281 1.0 2.0 0.00 1.97 1.24 76 1014.5
20260508001508 67 281 1.0 2.0 0.00 1.97 1.24 76 1014.4
20260508001005 67 321 1.0 2.0 0.00 1.97 1.24 76 1014.4
20260508000505 67 268 2.0 2.0 0.00 1.97 1.24 75 1014.3
20260508000010 67 290 1.0 2.0 0.00 1.97 1.24 74 1014.3
20260507235504 67 301 1.0 2.0 0.00 1.97 1.24 75 1014.2
20260507235002 68 301 1.0 3.0 0.00 1.97 1.24 74 1014.3
20260507234503 68 291 1.0 3.0 0.00 1.97 1.24 72 1014.3
20260507234003 68 313 2.0 4.0 0.00 1.97 1.24 71 1014.3
20260507233504 68 305 1.0 4.0 0.00 1.97 1.24 70 1014.1
20260507233008 69 324 2.0 5.0 0.00 1.97 1.24 69 1014.1
20260507232504 69 310 4.0 5.0 0.00 1.97 1.24 68 1014.0
20260507232004 69 300 2.0 7.0 0.00 1.97 1.24 68 1014.0
20260507231504 69 309 3.0 7.0 0.00 1.97 1.24 69 1014.2
20260507231008 70 339 2.0 5.0 0.00 1.97 1.24 68 1014.2
20260507230506 70 313 2.0 5.0 0.00 1.97 1.24 70 1014.1
20260507230013 69 340 2.0 5.0 0.00 1.97 1.24 71 1014.0
20260507225506 69 326 3.0 6.0 0.00 1.97 1.24 71 1014.0
20260507225004 69 300 2.0 6.0 0.00 1.97 1.24 72 1014.1
20260507224518 68 322 3.0 6.0 0.00 1.97 1.24 70 1014.3
20260507224007 68 295 3.0 6.0 0.00 1.97 1.24 70 1014.1
20260507223503 69 289 3.0 7.0 0.00 1.97 1.24 70 1013.9
20260507223007 69 329 2.0 7.0 0.00 1.98 1.24 71 1014.0
20260507222503 69 320 3.0 6.0 0.00 1.98 1.24 70 1014.0
20260507222003 69 314 3.0 10.0 0.00 1.98 1.24 69 1013.9
20260507221506 69 266 5.0 10.0 0.00 1.98 1.24 68 1013.7
20260507221006 69 315 4.0 10.0 0.00 1.98 1.24 69 1013.8
20260507220504 69 294 2.0 8.0 0.00 1.98 1.24 71 1013.8
20260507220013 69 323 3.0 11.0 0.00 1.98 1.24 69 1013.8
20260507215504 69 250 4.0 11.0 0.00 1.98 1.24 68 1013.6
20260507215007 70 313 4.0 9.0 0.00 1.98 1.24 66 1013.7
20260507214513 70 340 2.0 8.0 0.00 1.98 1.24 67 1013.6
20260507214004 70 139 2.0 11.0 0.00 1.98 1.24 68 1013.6
20260507213507 70 303 3.0 11.0 0.00 1.98 1.24 68 1013.7
20260507213010 70 263 7.0 14.0 0.00 1.98 1.24 68 1013.7
20260507212506 70 16 4.0 14.0 0.00 1.98 1.24 68 1013.7
20260507212003 71 256 7.0 10.0 0.00 1.98 1.24 67 1013.7
20260507211504 71 283 3.0 7.0 0.00 1.99 1.24 68 1013.7
20260507211005 70 28 3.0 6.0 0.00 2.01 1.24 67 1013.7
20260507210504 70 330 4.0 6.0 0.00 2.08 1.24 70 1013.4
20260507210003 69 331 3.0 8.0 0.00 2.11 1.24 69 1013.5
20260507205504 69 88 2.0 11.0 0.00 2.17 1.24 69 1013.4
20260507205005 69 260 7.0 11.0 0.00 2.19 1.24 68 1013.6
20260507204512 70 251 4.0 10.0 0.00 2.19 1.24 68 1013.7
20260507204007 69 319 6.0 11.0 0.00 2.19 1.24 69 1013.7
20260507203503 69 321 6.0 12.0 0.00 2.20 1.24 69 1013.9
20260507203003 69 299 5.0 12.0 0.00 2.21 1.24 70 1013.9
20260507202501 69 289 6.0 13.0 0.00 2.21 1.24 70 1013.9
20260507202002 69 323 4.0 11.0 0.00 2.21 1.24 69 1013.9
20260507201505 68 335 2.0 8.0 0.00 2.21 1.24 72 1014.0
20260507201002 68 323 3.0 9.0 0.00 2.21 1.24 72 1013.9
20260507200504 68 11 4.0 10.0 0.00 2.21 1.24 72 1013.9
20260507200002 68 25 5.0 11.0 0.00 2.21 1.24 71 1013.9
20260507195504 68 274 6.0 11.0 0.00 2.21 1.24 71 1014.0
20260507195004 67 316 7.0 11.0 0.00 2.21 1.24 73 1014.0
20260507194507 67 307 5.0 10.0 0.00 2.24 1.24 74 1013.9
20260507194002 67 319 4.0 10.0 0.00 2.26 1.24 74 1013.9
20260507193506 66 275 6.0 10.0 0.00 2.27 1.24 74 1014.0
20260507193003 66 340 5.0 11.0 0.00 2.27 1.24 75 1013.9
20260507192502 66 333 3.0 11.0 0.00 2.27 1.24 76 1014.1
20260507192002 66 326 5.0 12.0 0.00 2.28 1.24 76 1014.1
20260507191502 66 270 9.0 12.0 0.00 2.28 1.24 75 1014.1
20260507191003 66 15 6.0 12.0 0.00 2.28 1.24 75 1014.1
20260507190502 66 317 5.0 11.0 0.00 2.28 1.24 77 1014.1
20260507190012 66 329 6.0 11.0 0.00 2.28 1.24 76 1014.2
20260507185503 66 327 7.0 10.0 0.00 2.28 1.24 76 1014.3
20260507185006 65 19 6.0 9.0 0.00 2.28 1.24 75 1014.2
20260507184503 65 314 4.0 10.0 0.00 2.28 1.24 77 1014.4
20260507184004 65 290 5.0 11.0 0.00 2.28 1.24 77 1014.5
20260507183504 65 360 8.0 11.0 0.00 2.28 1.24 76 1014.6
20260507183003 65 14 3.0 10.0 0.00 2.28 1.24 78 1014.5
20260507182503 64 30 5.0 12.0 0.00 2.28 1.24 77 1014.7
20260507182003 64 315 5.0 12.0 0.00 2.28 1.24 78 1014.8
20260507181503 64 307 7.0 12.0 0.00 2.28 1.24 77 1014.7
20260507181004 64 340 6.0 12.0 0.00 2.28 1.24 78 1014.7
20260507180503 64 5 4.0 12.0 0.00 2.28 1.24 80 1014.8
20260507180004 63 340 7.0 12.0 0.00 2.28 1.24 80 1014.9
20260507175504 64 360 3.0 16.0 0.00 2.28 1.24 79 1014.9
20260507175004 64 324 9.0 16.0 0.00 2.28 1.24 79 1015.0
20260507174509 65 18 4.0 12.0 0.00 2.28 1.24 79 1014.8
20260507174004 65 340 7.0 13.0 0.00 2.28 1.24 78 1014.7
20260507173506 65 325 8.0 13.0 0.00 2.28 1.24 79 1014.7
20260507173026 65 331 9.0 13.0 0.00 2.28 1.24 77 1014.7
20260507172505 66 292 5.0 14.0 0.00 2.28 1.24 77 1014.7
20260507172004 66 296 5.0 14.0 0.00 2.28 1.24 76 1014.7
20260507171503 66 333 4.0 14.0 0.00 2.28 1.24 78 1014.7
20260507171003 66 340 6.0 14.0 0.00 2.28 1.24 79 1014.7
20260507170503 66 320 6.0 12.0 0.00 2.28 1.24 79 1014.7
20260507170010 66 311 6.0 12.0 0.00 2.28 1.24 78 1014.8
20260507165504 66 27 4.0 12.0 0.00 2.28 1.24 79 1014.7
20260507165004 67 340 6.0 12.0 0.00 2.28 1.24 78 1014.7
20260507164505 67 306 6.0 12.0 0.00 2.28 1.24 80 1014.6
20260507164004 67 340 7.0 12.0 0.00 2.28 1.24 78 1014.7
20260507163504 67 340 6.0 10.0 0.00 2.28 1.24 79 1014.7
20260507163003 67 304 5.0 12.0 0.00 2.28 1.24 79 1014.7
20260507162504 67 37 5.0 12.0 0.00 2.28 1.24 79 1014.6
20260507162008 67 29 5.0 12.0 0.00 2.28 1.24 80 1014.5
20260507161503 67 336 7.0 12.0 0.00 2.28 1.24 80 1014.4
20260507161007 67 18 9.0 12.0 0.00 2.28 1.24 79 1014.3
20260507160507 67 332 6.0 11.0 0.00 2.28 1.24 80 1014.3
20260507160003 67 9 4.0 9.0 0.00 2.28 1.24 79 1014.3
20260507155503 68 303 6.0 9.0 0.00 2.28 1.24 81 1014.4
20260507155003 67 338 4.0 9.0 0.00 2.28 1.24 83 1014.2
20260507154504 67 327 4.0 8.0 0.00 2.28 1.24 85 1014.1
20260507154004 65 43 3.0 8.0 0.00 2.28 1.24 85 1014.0
20260507153504 65 337 5.0 8.0 0.00 2.28 1.24 83 1013.9
20260507153008 65 277 5.0 9.0 0.00 2.28 1.24 84 1014.0
20260507152506 64 333 4.0 11.0 0.00 2.28 1.24 86 1014.0
20260507152004 64 340 7.0 11.0 0.00 2.28 1.24 86 1013.9
20260507151516 63 292 5.0 9.0 0.00 2.28 1.24 87 1014.0
20260507151004 63 337 4.0 8.0 0.00 2.28 1.24 87 1013.9
20260507150504 63 318 4.0 8.0 0.00 2.28 1.24 87 1013.9
20260507150015 63 328 3.0 10.0 0.00 2.28 1.24 88 1014.1
20260507145507 62 307 6.0 10.0 0.00 2.28 1.24 87 1014.3
20260507145011 62 304 5.0 11.0 0.00 2.28 1.24 87 1014.2
20260507144505 62 304 6.0 11.0 0.00 2.28 1.24 88 1014.1
20260507144003 62 338 5.0 11.0 0.01 2.28 1.24 89 1014.0
20260507143502 62 326 4.0 10.0 0.01 2.28 1.24 88 1014.0
20260507143016 62 317 5.0 9.0 0.01 2.28 1.24 89 1014.1
20260507142504 62 319 3.0 7.0 0.01 2.28 1.24 89 1014.0
20260507142006 62 304 2.0 5.0 0.01 2.28 1.24 89 1014.1
20260507141515 62 330 3.0 9.0 0.01 2.28 1.24 89 1014.0
20260507141007 62 13 3.0 10.0 0.01 2.28 1.24 89 1013.9
20260507140504 62 327 5.0 10.0 0.01 2.28 1.24 89 1013.7
20260507140006 62 315 3.0 8.0 0.01 2.28 1.24 90 1013.6
20260507135505 62 307 2.0 8.0 0.01 2.28 1.24 90 1013.4
20260507135007 61 31 1.0 8.0 0.01 2.28 1.24 90 1013.3
20260507134518 61 327 4.0 8.0 0.01 2.28 1.24 89 1013.6
20260507134009 61 9 5.0 8.0 0.00 2.27 1.23 90 1013.7
20260507133502 61 306 3.0 9.0 0.00 2.27 1.23 90 1013.7
20260507133007 61 5 3.0 9.0 0.00 2.27 1.23 89 1013.6
20260507132501 61 325 4.0 10.0 0.00 2.27 1.23 89 1013.7
20260507132003 61 333 6.0 10.0 0.00 2.27 1.23 90 1013.6
20260507131517 61 313 1.0 6.0 0.00 2.27 1.23 90 1013.5
20260507131008 61 30 0.0 4.0 0.00 2.27 1.23 90 1013.2
20260507130508 61 340 1.0 4.0 0.00 2.27 1.23 90 1013.1
20260507130013 61 21 2.0 5.0 0.00 2.27 1.23 90 1013.0
20260507125507 61 340 2.0 5.0 0.00 2.27 1.23 89 1012.9
20260507125005 61 36 2.0 7.0 0.00 2.27 1.23 89 1012.9
20260507124520 61 55 3.0 8.0 0.00 2.27 1.23 89 1012.8
20260507124004 61 22 4.0 10.0 0.00 2.27 1.23 89 1012.8
20260507123509 61 15 5.0 11.0 0.00 2.27 1.23 89 1012.6
20260507123014 61 24 3.0 11.0 0.00 2.27 1.23 89 1012.3
20260507122508 61 40 6.0 11.0 0.00 2.27 1.23 89 1012.2